[[{"header":{"parameterUnit":"m.s-1","parameterCategory":1,"la1":30.2991,"la2":30.254,"lo1":-89.0895,"lo2":-89.0444,"dy":0.0017,"dx":0.0017,"nx":28,"ny":28,"refTime":"2023-08-06T09:00:00:Z","depth":0,"parameterNumber":2,"parameterNumberName":"U-component_of_WINDS"},"data":[0,0,0,0,0,0,0,0,0,0,0,0,0,0,0,0,0,0,0,0,0,0,0,0,0,0,0,0,0,0,0,0,0,0,0,0,0,0,0,0,0,0,0,0,0,0,0,0,0,0,0,0,0,0,0,0,0,0,5.3886,5.3888,0,5.4045,5.4047,5.4048,5.4007,5.4004,5.4001,5.3998,5.416,5.4167,5.4174,0,0,0,0,0,0,0,0,0,0,0,0,0,5.3545,5.3551,5.3886,5.3888,5.389,5.4044,5.4047,5.4049,5.4008,5.4004,5.4,5.3996,5.4157,5.4166,5.4175,0,0,0,0,0,0,0,0,0,0,0,0,0,5.3697,5.3553,5.3885,5.3888,5.389,5.4044,5.4047,5.4049,5.4008,5.4004,5.3999,5.3994,5.4154,5.4165,5.4176,5.4337,0,0,5.4209,5.4214,0,0,0,0,0,0,0,0,5.3689,5.371,5.3886,5.3888,5.389,5.4001,5.3986,5.4146,5.401,5.3963,5.3998,5.3992,5.4111,5.4125,5.4165,5.4345,5.4352,5.421,5.4216,5.4221,5.4224,0,0,0,0,0,0,0,5.3678,5.3703,5.3949,5.3888,5.3891,5.388,5.3897,5.4016,5.4061,5.3967,5.3964,5.3984,5.4111,5.4155,5.4168,5.4354,5.421,5.4219,5.4226,5.423,5.4672,5.4676,0,0,0,0,0,0,5.3666,5.3694,5.3944,5.3953,5.3776,5.389,5.3909,5.397,5.406,5.4069,5.3988,5.3981,5.4138,5.4156,5.4174,5.4367,5.4221,5.4231,5.4237,5.4666,5.4673,5.4678,0,0,0,0,0,0,5.3659,5.3689,5.3937,5.3823,5.3854,5.3901,5.3971,5.3976,5.4019,5.4076,5.4083,5.4024,5.4135,5.4159,5.4296,5.4372,5.4236,5.4246,5.466,5.4668,5.4676,5.4755,0,0,0,0,0,0,5.3649,5.3686,5.3749,5.3825,5.386,5.4058,5.3976,5.3983,5.4038,5.4032,5.4112,5.412,5.4133,5.428,5.4307,5.4384,5.4254,5.4654,5.4664,5.4673,5.4745,5.4764,5.478,0,0,0,0,0,5.3637,5.3765,5.3752,5.3782,5.3939,5.4062,5.4082,5.4095,5.4045,5.4107,5.4143,5.4118,5.436,5.4295,5.4325,5.4406,5.4649,5.4661,5.4672,5.4738,5.476,5.478,0,0,0,0,0,0,5.3696,5.3775,5.3761,5.3918,5.3984,5.4055,5.4134,5.4119,5.42,5.419,5.4202,5.4221,5.4361,5.4398,5.4324,5.4566,5.4497,5.4515,5.4536,5.4559,5.4576,5.4563,5.4264,0,0,0,0,0,5.3728,5.3821,5.3885,5.4017,5.405,5.4087,5.4141,5.4145,5.4213,5.4241,5.4287,5.4354,5.4444,5.4504,5.4591,5.4751,5.4767,5.4822,5.4839,5.4853,5.4868,5.4953,5.4978,5.4717,5.4717,5.4716,0,0,5.3793,5.3848,5.3906,5.403,5.4081,5.4177,5.411,5.4215,5.4285,5.4256,5.4388,5.4425,5.45,5.4649,5.4717,5.4684,5.4944,5.4868,5.4879,5.4886,5.4968,5.4992,5.5014,5.4725,5.4723,5.4722,0,0,5.3961,5.4013,5.4127,5.4179,5.4258,5.4281,5.4308,5.4382,5.4405,5.4538,5.4517,5.4601,5.4758,5.4812,5.486,5.5047,5.5026,5.5075,5.5165,5.5248,5.5268,5.5286,5.535,5.5373,5.509,5.509,5.5091,0,5.4032,5.4175,5.4187,5.4293,5.4347,5.4326,5.444,5.4491,5.4594,5.4631,5.4593,5.4788,5.4838,5.4997,5.5043,5.5084,5.5114,5.5065,5.5264,5.5283,5.53,5.5361,5.5385,5.5096,5.5095,5.5094,5.5094,0,5.4258,5.4358,5.4441,5.454,5.4604,5.4714,5.4741,5.4804,5.4803,5.4829,5.4964,5.5023,5.512,5.5159,5.5159,5.5318,5.5295,5.5261,5.5191,5.533,5.5387,5.5411,5.5103,5.5101,5.51,5.5098,0,0,5.4466,5.457,5.46,5.4644,5.4728,5.4805,5.4914,5.5009,5.5061,5.5133,5.5223,5.5356,5.5324,5.5378,5.5384,5.5457,5.5598,5.5414,5.5416,5.5443,5.5775,5.5798,5.5825,5.5586,5.559,5.5594,5.5767,0,5.4639,5.483,5.4843,5.5015,5.5106,5.5086,5.5181,5.5242,5.527,5.5351,5.5382,5.5474,5.5427,5.5459,5.5531,5.5566,5.5664,5.5554,5.5667,5.5671,5.5646,5.5856,5.5881,5.6042,5.579,5.5794,5.5797,0,5.4866,5.4944,5.5125,5.5194,5.5233,5.5318,5.5404,5.5483,5.5551,5.5566,5.5627,5.5622,5.5732,5.566,5.5811,5.5735,5.5783,5.5807,5.5813,5.5822,5.5741,5.5867,5.6094,5.6116,5.5833,5.583,5.5828,0,5.4996,5.5147,5.5273,5.5312,5.5397,5.5457,5.5495,5.5559,5.5615,5.5691,5.5727,5.5815,5.5863,5.5931,5.5949,5.5896,5.6099,5.6029,5.6112,5.6112,5.6154,5.615,5.6388,5.6189,5.6189,5.6189,5.6188,0,5.5187,5.5297,5.5333,5.5411,5.5533,5.5548,5.5669,5.5703,5.576,5.5843,5.5833,5.5911,5.5932,5.6014,5.603,5.615,5.6173,5.6187,5.6189,5.6186,5.6184,5.6215,5.6204,5.6195,5.6194,5.6192,5.6191,0,5.5352,5.5381,5.5517,5.5587,5.5607,5.5694,5.5753,5.5827,5.5853,5.5958,5.5984,5.6025,5.6121,5.6147,5.6262,5.6272,5.6413,5.6407,5.6389,5.6388,5.6469,5.646,5.6733,5.6768,5.6549,5.6551,5.6553,0,5.547,5.5555,5.5633,5.5688,5.5728,5.5817,5.5873,5.5891,5.595,5.6033,5.6097,5.6191,5.6267,5.6421,5.646,5.6548,5.6541,5.6631,5.6554,5.6548,5.6539,5.6532,5.654,5.6644,5.6647,5.6649,5.665,0,5.5676,5.5686,5.5767,5.5854,5.5921,5.599,5.6056,5.6102,5.6128,5.6194,5.6292,5.6351,5.6467,5.656,5.6648,5.6686,5.6672,5.6674,5.6698,5.6694,5.6679,5.6685,5.6426,5.6667,5.6666,5.6664,5.6664,5.6663,5.582,5.5893,5.5958,5.6049,5.6101,5.6162,5.6234,5.6269,5.6351,5.6447,5.6452,5.6557,5.6622,5.6739,5.6782,5.6864,5.6837,5.6871,5.6879,5.6887,5.6892,5.6669,5.688,5.688,5.6879,5.6879,5.6879,0,5.6022,5.6063,5.6147,5.6239,5.631,5.6291,5.6363,5.6423,5.6515,5.6577,5.6652,5.6763,5.6852,5.6899,5.6988,5.7044,5.704,5.7067,5.7061,5.7069,5.6913,5.6882,5.7068,5.7068,5.7068,5.7068,5.7068,5.7068,5.6135,5.6257,5.6274,5.6421,5.6461,5.6564,5.6606,5.6662,5.6711,5.6835,5.6909,5.6939,5.6994,5.7087,5.7168,5.7179,5.7211,5.7241,5.7248,5.71,5.7081,5.7062,5.7033,5.7248,5.7249,5.7398,5.7399,5.74]},{"header":{"parameterUnit":"m.s-1","parameterCategory":1,"la1":30.2991,"la2":30.254,"lo1":-89.0895,"lo2":-89.0444,"dy":0.0017,"dx":0.0017,"nx":28,"ny":28,"refTime":"2023-08-06T09:00:00:Z","depth":0,"parameterNumber":3,"parameterNumberName":"V-component_of_WINDS"},"data":[0,0,0,0,0,0,0,0,0,0,0,0,0,0,0,0,0,0,0,0,0,0,0,0,0,0,0,0,0,0,0,0,0,0,0,0,0,0,0,0,0,0,0,0,0,0,0,0,0,0,0,0,0,0,0,0,0,0,1.2431,1.243,0,1.2414,1.2413,1.2413,1.2359,1.2358,1.2357,1.2356,1.234,1.234,1.2341,0,0,0,0,0,0,0,0,0,0,0,0,0,1.2417,1.2418,1.2431,1.243,1.243,1.2414,1.2413,1.2413,1.2359,1.2358,1.2356,1.2355,1.234,1.234,1.2341,0,0,0,0,0,0,0,0,0,0,0,0,0,1.2414,1.2418,1.2431,1.2401,1.2398,1.2414,1.2413,1.2413,1.236,1.2358,1.2356,1.2354,1.2339,1.234,1.2341,1.2384,0,0,1.2345,1.2345,0,0,0,0,0,0,0,0,1.2414,1.2415,1.2406,1.2403,1.24,1.2387,1.2403,1.2404,1.236,1.2374,1.2355,1.2353,1.2357,1.2356,1.2357,1.2383,1.2383,1.2345,1.2345,1.2346,1.2346,0,0,0,0,0,0,0,1.2415,1.2415,1.2424,1.2406,1.2402,1.2389,1.2387,1.2403,1.2376,1.2373,1.2369,1.2368,1.2355,1.2356,1.2357,1.2383,1.2345,1.2346,1.2346,1.2347,1.2442,1.2444,0,0,0,0,0,0,1.2419,1.2416,1.2424,1.2423,1.2403,1.2391,1.2388,1.2393,1.2376,1.2371,1.2369,1.2365,1.2355,1.2355,1.2356,1.2404,1.2346,1.2347,1.2347,1.244,1.2443,1.2445,0,0,0,0,0,0,1.2419,1.242,1.2425,1.2418,1.2418,1.2393,1.2399,1.2393,1.2395,1.2373,1.2368,1.2375,1.2354,1.2354,1.2377,1.2403,1.2347,1.2348,1.2438,1.2441,1.2444,1.2502,0,0,0,0,0,0,1.2419,1.2421,1.2436,1.2419,1.2419,1.2447,1.24,1.2394,1.2396,1.2391,1.2377,1.2373,1.2353,1.2376,1.2378,1.2404,1.2349,1.2436,1.244,1.2443,1.2498,1.2507,1.2515,0,0,0,0,0,1.2418,1.2454,1.2437,1.2439,1.2438,1.2448,1.2448,1.2423,1.2399,1.2415,1.24,1.2374,1.24,1.2379,1.2381,1.2407,1.2434,1.2438,1.2443,1.2494,1.2505,1.2514,0,0,0,0,0,0,1.2476,1.2451,1.2433,1.2464,1.2459,1.2439,1.2459,1.2435,1.2437,1.2432,1.2401,1.2399,1.2426,1.2419,1.2396,1.2447,1.2412,1.2417,1.2451,1.2461,1.2469,1.2471,1.235,0,0,0,0,0,1.2492,1.2502,1.248,1.251,1.2508,1.2484,1.2488,1.2469,1.2462,1.246,1.2447,1.2443,1.245,1.2455,1.246,1.2497,1.2493,1.2515,1.2524,1.2531,1.2535,1.2554,1.2563,1.2459,1.2459,1.2459,0,0,1.2526,1.2514,1.2522,1.2521,1.2515,1.2526,1.2483,1.2497,1.2505,1.2462,1.2483,1.2474,1.2466,1.2496,1.2509,1.2491,1.2563,1.2536,1.2542,1.2543,1.2559,1.2569,1.2578,1.2462,1.2461,1.2461,0,0,1.2593,1.2585,1.2608,1.2603,1.2593,1.2577,1.2583,1.2567,1.2559,1.2579,1.2547,1.2556,1.2569,1.2565,1.2564,1.2629,1.2605,1.2632,1.2675,1.2693,1.2702,1.2709,1.2732,1.274,1.2637,1.2637,1.2637,0,1.2636,1.2652,1.2623,1.2639,1.264,1.2601,1.2624,1.262,1.2614,1.2615,1.2595,1.261,1.2602,1.263,1.2646,1.2647,1.2652,1.2634,1.2703,1.2709,1.2716,1.2737,1.2746,1.264,1.264,1.2639,1.2639,0,1.2705,1.2717,1.2737,1.273,1.2733,1.2753,1.2728,1.2734,1.2715,1.27,1.2721,1.271,1.2713,1.2718,1.2699,1.2743,1.2732,1.2708,1.2672,1.2729,1.2749,1.2757,1.2645,1.2644,1.2643,1.2642,0,0,1.2809,1.2786,1.2794,1.279,1.2777,1.2785,1.2803,1.2804,1.281,1.2807,1.2821,1.2832,1.2809,1.2809,1.279,1.2806,1.2858,1.2779,1.2778,1.2794,1.2905,1.2924,1.2934,1.2841,1.2843,1.2844,1.2906,0,1.2873,1.2902,1.2876,1.291,1.292,1.2883,1.2898,1.2892,1.2879,1.2886,1.2871,1.288,1.2849,1.2848,1.2862,1.2848,1.2879,1.2843,1.2854,1.2855,1.2858,1.2944,1.2964,1.3023,1.2913,1.2914,1.2915,0,1.2951,1.295,1.2985,1.2968,1.2972,1.2986,1.2985,1.2992,1.2984,1.2973,1.2973,1.2948,1.2965,1.293,1.2953,1.2929,1.2932,1.2925,1.2927,1.2927,1.2889,1.2947,1.3041,1.305,1.2927,1.2926,1.2926,0,1.3023,1.3031,1.3052,1.305,1.3032,1.3043,1.3035,1.3025,1.3028,1.3027,1.3028,1.303,1.3031,1.3032,1.3009,1.2986,1.3035,1.2998,1.3027,1.3027,1.3039,1.3038,1.3135,1.3041,1.3041,1.3041,1.304,0,1.3097,1.3119,1.3084,1.3097,1.3121,1.3092,1.3117,1.3106,1.3097,1.3108,1.3076,1.3087,1.3056,1.3063,1.3046,1.3067,1.3068,1.306,1.3055,1.3063,1.3064,1.3064,1.306,1.3043,1.3042,1.3042,1.3042,0,1.3181,1.3158,1.3179,1.316,1.3155,1.3174,1.3157,1.3169,1.3153,1.3167,1.3169,1.3145,1.3152,1.313,1.3133,1.3121,1.3152,1.3141,1.3155,1.3151,1.3181,1.3179,1.3282,1.3294,1.3192,1.3193,1.3194,0,1.323,1.3246,1.3228,1.3232,1.3227,1.3235,1.3236,1.3208,1.3211,1.3203,1.3216,1.322,1.3222,1.3236,1.3219,1.3222,1.321,1.3245,1.321,1.3217,1.321,1.3209,1.3211,1.3253,1.3254,1.3255,1.3256,0,1.3318,1.3306,1.3309,1.3309,1.3312,1.3311,1.3307,1.3313,1.3282,1.3288,1.3294,1.3296,1.3299,1.3304,1.3303,1.3296,1.3271,1.3267,1.3274,1.3282,1.329,1.3286,1.3175,1.3265,1.3264,1.3264,1.3263,1.3263,1.3386,1.3399,1.3388,1.3393,1.3387,1.3384,1.3394,1.3379,1.3384,1.3384,1.3367,1.3377,1.3368,1.3364,1.3359,1.3367,1.335,1.336,1.3363,1.3366,1.3371,1.3289,1.3367,1.3366,1.3366,1.3366,1.3366,0,1.3473,1.3463,1.3468,1.3464,1.3468,1.3443,1.3438,1.3443,1.3452,1.3445,1.3448,1.3455,1.346,1.3443,1.3445,1.3454,1.3443,1.3456,1.3455,1.3454,1.3385,1.3379,1.3465,1.3465,1.3465,1.3465,1.3465,1.3465,1.3518,1.3538,1.3524,1.3541,1.3532,1.3541,1.354,1.3537,1.3531,1.3541,1.3544,1.3533,1.3522,1.3523,1.3526,1.3521,1.3524,1.354,1.3532,1.3468,1.3459,1.3449,1.3443,1.3541,1.3541,1.3599,1.36,1.36]}]]